Regional Weather Roundup
Issued by NWS

Home | Current Version | Previous Version | Graphics & Text | Print | Product List | Glossary On
Versions: 1 2 3 4 5 6 7 8 9 10 11 12 13 14 15 16 17 18 19 20 21 22 23 24 25 26 27 28 29 30 31 32 33 34 35 36 37 38 39 40 41 42 43 44 45 46 47 48 49 50
000
ASUS43 KOAX 250710
RWRNE

WEATHER ROUNDUP FOR NEBRASKA
NATIONAL WEATHER SERVICE OMAHA NE
200 AM CDT SAT APR 25 2015

NOTES: SATELLITE DATA IS BEING USED TO AUGMENT CLOUD COVER ABOVE
       12000 FEET.
       "FAIR" INDICATES FEW OR NO CLOUDS BELOW 12,000 FEET WITH NO
       SIGNIFICANT WEATHER AND/OR OBSTRUCTIONS TO VISIBILITY.

  * THESE STATIONS DO NOT REPORT WEATHER SUCH AS RAIN...SNOW OR FOG.

NEZ001>004-019>022-054>056-250800-
NEBRASKA PANHANDLE

CITY           SKY/WX    TMP DP  RH WIND       PRES   REMARKS
SCOTTSBLUFF    PTCLDY    43  40  89 W6        29.64S
ALLIANCE       PTCLDY    41  39  93 N6        29.62R
CHADRON        PTCLDY    44  41  89 CALM      29.64R
KIMBALL        MOCLDY    46  38  76 NW9       29.65R
SIDNEY         MOCLDY    44  38  79 N8        29.64S
$$

NEZ057>060-069>072-079>082-250800-
SOUTHWEST NEBRASKA

CITY           SKY/WX    TMP DP  RH WIND       PRES   REMARKS
IMPERIAL       CLOUDY    50  43  77 W7        29.60R
LEXINGTON      CLOUDY    56  51  82 N5        29.52F
MCCOOK         CLOUDY    54  47  77 N5        29.55R
OGALLALA       MOCLDY    51  46  82 N6        29.60R
$$

NEZ005>010-023>029-035>040-094-250800-
NORTH CENTRAL NEBRASKA

CITY           SKY/WX    TMP DP  RH WIND       PRES   REMARKS
VALENTINE      CLOUDY    58  44  60 E16G24    29.55R
AINSWORTH      CLOUDY    55  47  76 E6        29.56R
BROKEN BOW     CLOUDY    54  47  77 SE5       29.52R
O`NEILL        TSTM      54  51  92 E17       29.56F
ORD            CLOUDY    56  51  84 N6        29.50F
THEDFORD       CLOUDY    54  50  87 CALM      29.57S
$$

NEZ041-046>049-061>064-073>077-083>087-250800-
SOUTH CENTRAL NEBRASKA

CITY           SKY/WX    TMP DP  RH WIND       PRES   REMARKS
GRAND ISLAND   LGT RAIN  55  54  96 NE3       29.50R FOG
AURORA         RAIN      55  55 100 NE7       29.48S
HASTINGS       TSTM      55  55 100 W9        29.48F FOG
HEBRON         CLOUDY    56  54  93 NW13      29.44R FOG
HOLDREGE       CLOUDY    55  55  97 NW9       29.53R FOG
KEARNEY *      CLOUDY    55  54  94 NW9       29.53R
YORK           CLOUDY    55  54  94 NE13      29.47F FOG
$$

NEZ011>018-030>034-042>045-250800-
NORTHEAST NEBRASKA

CITY           SKY/WX    TMP DP  RH WIND       PRES   REMARKS
NORFOLK        CLOUDY    57  52  83 E9        29.51F
ALBION         CLOUDY    56  52  86 NE6       29.50F
BLAIR          LGT RAIN  55  52  92 NE14      29.49F
COLUMBUS *     CLOUDY    54  48  82 E14       29.51F
FREMONT        HVY RAIN  56  54  94 E8        29.49F
TEKAMAH        CLOUDY    53  51  93 NE13      29.52F FOG
WAYNE          CLOUDY    56  51  84 NE8       29.55S
$$

NEZ050>053-065>068-078-088>093-250800-
SOUTHEAST NEBRASKA

CITY           SKY/WX    TMP DP  RH WIND       PRES   REMARKS
LINCOLN        LGT RAIN  55  53  93 NE15      29.43F FOG
OMAHA EPPLEY   TSTM      57  54  89 E7        29.50F
BEATRICE       CLOUDY    56  55  94 E8        29.41S
FALLS CITY     RAIN      57  56  96 E15       29.44F
NEBRASKA CITY  LGT RAIN  56  55  98 NE7       29.45F
PLATTSMOUTH    RAIN      55  53  94 E9        29.48F
$$

NEZ044-045-051>053-067-250800-
OMAHA AREA

CITY           SKY/WX    TMP DP  RH WIND       PRES   REMARKS
OMAHA EPPLEY   TSTM      57  54  89 E7        29.50F
BLAIR          LGT RAIN  55  52  92 NE14      29.49F
FREMONT        HVY RAIN  56  54  94 E8        29.49F
MILLARD        CLOUDY    57  54  87 E7        29.49F
OFFUTT AFB     RAIN      56  54  92 NE10      29.48F
PLATTSMOUTH    RAIN      55  53  94 E9        29.48F
WAHOO          CLOUDY    56  52  88 E10       29.48F FOG
$$


USA.gov is the U.S. government's official web portal to all federal, state and local government web resources and services.